Time,TemperatureF,DewpointF,PressureIn,WindDirection,WindDirectionDegrees,WindSpeedMPH,WindSpeedGustMPH,Humidity,HourlyPrecipIn,Conditions,Clouds,dailyrainin,SoftwareType,DateUTC
2013-05-20 00:01:00,62.0,40.0,29.58,SSE,165,0.0,-999.0,45,-99.99,,,-99.99,,2013-05-20 07:01:00,
2013-05-20 00:11:00,62.0,40.0,29.58,SSE,165,0.0,-999.0,45,-99.99,,,-99.99,,2013-05-20 07:11:00,
2013-05-20 00:21:00,62.0,40.0,29.58,SE,144,0.0,-999.0,45,-99.99,,,-99.99,,2013-05-20 07:21:00,
2013-05-20 00:32:00,61.0,40.0,29.58,SSE,158,1.0,-999.0,45,-99.99,,,-99.99,,2013-05-20 07:32:00,
2013-05-20 00:41:00,61.0,40.0,29.58,SSE,158,1.0,-999.0,45,-99.99,,,-99.99,,2013-05-20 07:41:00,
2013-05-20 00:52:00,61.0,41.0,29.57,SSE,162,3.0,-999.0,47,-99.99,,,-99.99,,2013-05-20 07:52:00,
2013-05-20 01:01:00,61.0,41.0,29.57,SSE,161,1.0,-999.0,47,-99.99,,,-99.99,,2013-05-20 08:01:00,
2013-05-20 01:11:00,61.0,41.0,29.57,SSE,161,1.0,-999.0,47,-99.99,,,-99.99,,2013-05-20 08:11:00,
2013-05-20 01:21:00,61.0,39.0,29.57,SE,130,1.0,-999.0,44,-99.99,,,-99.99,,2013-05-20 08:21:00,
2013-05-20 01:31:00,62.0,39.0,29.57,SE,130,0.0,-999.0,43,-99.99,,,-99.99,,2013-05-20 08:31:00,
2013-05-20 01:41:00,62.0,39.0,29.57,SE,130,0.0,-999.0,43,-99.99,,,-99.99,,2013-05-20 08:41:00,
2013-05-20 01:52:00,61.0,39.0,29.56,SSE,153,0.0,-999.0,44,-99.99,,,-99.99,,2013-05-20 08:52:00,
2013-05-20 02:01:00,62.0,38.0,29.56,SSE,158,0.0,-999.0,41,-99.99,,,-99.99,,2013-05-20 09:01:00,
2013-05-20 02:12:00,62.0,38.0,29.56,SSE,158,0.0,-999.0,41,-99.99,,,-99.99,,2013-05-20 09:12:00,
2013-05-20 02:21:00,61.0,38.0,29.56,SSE,158,0.0,-999.0,42,-99.99,,,-99.99,,2013-05-20 09:21:00,
2013-05-20 02:32:00,61.0,38.0,29.55,SSE,155,0.0,-999.0,42,-99.99,,,-99.99,,2013-05-20 09:32:00,
2013-05-20 02:42:00,61.0,38.0,29.55,SSE,155,0.0,-999.0,42,-99.99,,,-99.99,,2013-05-20 09:42:00,
2013-05-20 02:52:00,61.0,36.0,29.55,SSE,148,0.0,-999.0,40,-99.99,,,-99.99,,2013-05-20 09:52:00,
2013-05-20 03:02:00,61.0,36.0,29.55,SSE,148,0.0,-999.0,40,-99.99,,,-99.99,,2013-05-20 10:02:00,
2013-05-20 03:12:00,61.0,36.0,29.55,SSE,148,0.0,-999.0,40,-99.99,,,-99.99,,2013-05-20 10:12:00,
2013-05-20 03:22:00,61.0,36.0,29.54,SE,130,0.0,-999.0,39,-99.99,,,-99.99,,2013-05-20 10:22:00,
2013-05-20 03:32:00,62.0,35.0,29.54,SE,134,0.0,-999.0,37,-99.99,,,-99.99,,2013-05-20 10:32:00,
2013-05-20 03:41:00,62.0,35.0,29.54,SE,134,0.0,-999.0,37,-99.99,,,-99.99,,2013-05-20 10:41:00,
2013-05-20 03:52:00,62.0,35.0,29.54,SSE,150,1.0,-999.0,36,-99.99,,,-99.99,,2013-05-20 10:52:00,
2013-05-20 04:02:00,63.0,33.0,29.54,SE,134,0.0,-999.0,33,-99.99,,,-99.99,,2013-05-20 11:02:00,
2013-05-20 04:12:00,63.0,33.0,29.54,SE,134,0.0,-999.0,33,-99.99,,,-99.99,,2013-05-20 11:12:00,
2013-05-20 04:21:00,63.0,33.0,29.54,SE,134,0.0,-999.0,33,-99.99,,,-99.99,,2013-05-20 11:21:00,
2013-05-20 04:32:00,64.0,34.0,29.54,SE,130,0.0,-999.0,33,-99.99,,,-99.99,,2013-05-20 11:32:00,
2013-05-20 04:41:00,64.0,34.0,29.54,SE,130,0.0,-999.0,33,-99.99,,,-99.99,,2013-05-20 11:41:00,
2013-05-20 04:52:00,64.0,34.0,29.54,SE,129,0.0,-999.0,32,-99.99,,,-99.99,,2013-05-20 11:52:00,
2013-05-20 05:01:00,64.0,33.0,29.54,SE,129,0.0,-999.0,31,-99.99,,,-99.99,,2013-05-20 12:01:00,
2013-05-20 05:21:00,64.0,33.0,29.53,SE,132,0.0,-999.0,31,-99.99,,,-99.99,,2013-05-20 12:21:00,
2013-05-20 05:31:00,64.0,33.0,29.53,ESE,115,0.0,-999.0,31,-99.99,,,-99.99,,2013-05-20 12:31:00,
2013-05-20 05:41:00,64.0,33.0,29.53,ESE,115,0.0,-999.0,31,-99.99,,,-99.99,,2013-05-20 12:41:00,
2013-05-20 05:52:00,64.0,34.0,29.53,SSE,163,0.0,-999.0,32,-99.99,,,-99.99,,2013-05-20 12:52:00,
2013-05-20 06:01:00,63.0,33.0,29.53,SE,133,0.0,-999.0,33,-99.99,,,-99.99,,2013-05-20 13:01:00,
2013-05-20 06:11:00,63.0,33.0,29.53,SE,133,0.0,-999.0,33,-99.99,,,-99.99,,2013-05-20 13:11:00,
2013-05-20 06:22:00,63.0,33.0,29.53,SE,135,0.0,-999.0,33,-99.99,,,-99.99,,2013-05-20 13:22:00,
2013-05-20 06:31:00,63.0,33.0,29.53,SE,146,0.0,-999.0,33,-99.99,,,-99.99,,2013-05-20 13:31:00,
2013-05-20 06:41:00,63.0,33.0,29.53,SE,146,0.0,-999.0,33,-99.99,,,-99.99,,2013-05-20 13:41:00,
2013-05-20 06:52:00,62.0,33.0,29.54,SE,137,0.0,-999.0,34,-99.99,,,-99.99,,2013-05-20 13:52:00,
2013-05-20 07:01:00,63.0,34.0,29.54,SE,138,0.0,-999.0,34,-99.99,,,-99.99,,2013-05-20 14:01:00,
2013-05-20 07:11:00,63.0,34.0,29.54,SE,138,0.0,-999.0,34,-99.99,,,-99.99,,2013-05-20 14:11:00,
2013-05-20 07:21:00,66.0,36.0,29.54,SE,134,0.0,-999.0,33,-99.99,,,-99.99,,2013-05-20 14:21:00,
2013-05-20 07:31:00,68.0,36.0,29.54,ESE,117,0.0,-999.0,31,-99.99,,,-99.99,,2013-05-20 14:31:00,
2013-05-20 08:01:00,72.0,38.0,29.54,North,9,0.0,-999.0,29,-99.99,,,-99.99,,2013-05-20 15:01:00,
2013-05-20 08:33:00,73.0,39.0,29.55,ENE,67,0.0,-999.0,29,-99.99,,,-99.99,,2013-05-20 15:33:00,
2013-05-20 09:02:00,75.0,40.0,29.55,NNE,17,0.0,-999.0,28,-99.99,,,-99.99,,2013-05-20 16:02:00,
2013-05-20 09:22:00,75.0,40.0,29.56,NW,321,0.0,-999.0,28,-99.99,,,-99.99,,2013-05-20 16:22:00,
2013-05-20 09:32:00,75.0,39.0,29.55,North,355,1.0,-999.0,27,-99.99,,,-99.99,,2013-05-20 16:32:00,
2013-05-20 09:42:00,75.0,39.0,29.55,North,355,1.0,-999.0,27,-99.99,,,-99.99,,2013-05-20 16:42:00,
2013-05-20 09:53:00,75.0,40.0,29.55,NNE,31,2.0,-999.0,28,-99.99,,,-99.99,,2013-05-20 16:53:00,
2013-05-20 10:02:00,75.0,41.0,29.55,North,355,3.0,-999.0,29,-99.99,,,-99.99,,2013-05-20 17:02:00,
2013-05-20 10:22:00,75.0,41.0,29.55,NNW,348,2.0,-999.0,29,-99.99,,,-99.99,,2013-05-20 17:22:00,
2013-05-20 10:32:00,75.0,39.0,29.55,NNW,342,3.0,-999.0,27,-99.99,,,-99.99,,2013-05-20 17:32:00,
2013-05-20 10:44:00,75.0,39.0,29.55,NNW,342,3.0,-999.0,27,-99.99,,,-99.99,,2013-05-20 17:44:00,
2013-05-20 10:53:00,76.0,39.0,29.55,NNE,14,4.0,-999.0,26,-99.99,,,-99.99,,2013-05-20 17:53:00,
2013-05-20 11:02:00,76.0,38.0,29.55,North,350,6.0,-999.0,25,-99.99,,,-99.99,,2013-05-20 18:02:00,
2013-05-20 11:12:00,76.0,38.0,29.55,North,350,6.0,-999.0,25,-99.99,,,-99.99,,2013-05-20 18:12:00,
2013-05-20 11:23:00,78.0,39.0,29.56,NNW,344,5.0,-999.0,25,-99.99,,,-99.99,,2013-05-20 18:23:00,
2013-05-20 11:32:00,78.0,37.0,29.55,NNW,330,7.0,-999.0,23,-99.99,,,-99.99,,2013-05-20 18:32:00,
2013-05-20 11:41:00,78.0,37.0,29.55,NNW,330,7.0,-999.0,23,-99.99,,,-99.99,,2013-05-20 18:41:00,
2013-05-20 11:55:00,78.0,36.0,29.56,NNW,331,8.0,-999.0,22,-99.99,,,-99.99,,2013-05-20 18:55:00,
2013-05-20 12:04:00,79.0,37.0,29.55,North,360,8.0,-999.0,22,-99.99,,,-99.99,,2013-05-20 19:04:00,
2013-05-20 12:11:00,80.0,39.0,29.55,North,355,6.0,-999.0,23,-99.99,,,-99.99,,2013-05-20 19:11:00,
2013-05-20 12:21:00,80.0,39.0,29.55,North,355,6.0,-999.0,23,-99.99,,,-99.99,,2013-05-20 19:21:00,
2013-05-20 12:32:00,81.0,40.0,29.55,NNW,347,4.0,-999.0,23,-99.99,,,-99.99,,2013-05-20 19:32:00,
2013-05-20 12:41:00,81.0,40.0,29.55,NNW,347,4.0,-999.0,23,-99.99,,,-99.99,,2013-05-20 19:41:00,
2013-05-20 13:01:00,82.0,39.0,29.55,NNE,19,4.0,-999.0,22,-99.99,,,-99.99,,2013-05-20 20:01:00,
2013-05-20 13:11:00,83.0,40.0,29.54,NE,36,5.0,-999.0,22,-99.99,,,-99.99,,2013-05-20 20:11:00,
2013-05-20 13:32:00,83.0,41.0,29.54,NNE,13,6.0,-999.0,23,-99.99,,,-99.99,,2013-05-20 20:32:00,
2013-05-20 13:42:00,83.0,42.0,29.54,North,355,5.0,-999.0,24,-99.99,,,-99.99,,2013-05-20 20:42:00,
2013-05-20 13:52:00,83.0,42.0,29.54,North,355,5.0,-999.0,24,-99.99,,,-99.99,,2013-05-20 20:52:00,
2013-05-20 14:01:00,82.0,39.0,29.54,NNE,14,5.0,-999.0,22,-99.99,,,-99.99,,2013-05-20 21:01:00,
2013-05-20 14:32:00,81.0,43.0,29.54,NNW,342,5.0,-999.0,26,-99.99,,,-99.99,,2013-05-20 21:32:00,
2013-05-20 14:42:00,81.0,46.0,29.54,NW,323,5.0,-999.0,29,-99.99,,,-99.99,,2013-05-20 21:42:00,
2013-05-20 14:53:00,81.0,46.0,29.54,NW,323,5.0,-999.0,29,-99.99,,,-99.99,,2013-05-20 21:53:00,
2013-05-20 15:02:00,81.0,46.0,29.54,NW,304,3.0,-999.0,29,-99.99,,,-99.99,,2013-05-20 22:02:00,
2013-05-20 15:12:00,80.0,47.0,29.54,NNW,329,3.0,-999.0,32,-99.99,,,-99.99,,2013-05-20 22:12:00,
2013-05-20 15:33:00,78.0,44.0,29.53,North,355,4.0,-999.0,30,-99.99,,,-99.99,,2013-05-20 22:33:00,
2013-05-20 15:42:00,78.0,44.0,29.53,North,355,4.0,-999.0,30,-99.99,,,-99.99,,2013-05-20 22:42:00,
2013-05-20 15:52:00,78.0,40.0,29.53,NNW,327,2.0,-999.0,26,-99.99,,,-99.99,,2013-05-20 22:52:00,
2013-05-20 16:02:00,79.0,41.0,29.52,NW,315,3.0,-999.0,26,-99.99,,,-99.99,,2013-05-20 23:02:00,
2013-05-20 16:12:00,79.0,41.0,29.52,NW,315,3.0,-999.0,26,-99.99,,,-99.99,,2013-05-20 23:12:00,
2013-05-20 16:21:00,79.0,42.0,29.52,North,355,3.0,-999.0,27,-99.99,,,-99.99,,2013-05-20 23:21:00,
2013-05-20 16:32:00,79.0,42.0,29.52,North,355,3.0,-999.0,27,-99.99,,,-99.99,,2013-05-20 23:32:00,
2013-05-20 16:41:00,79.0,42.0,29.52,North,355,3.0,-999.0,27,-99.99,,,-99.99,,2013-05-20 23:41:00,
2013-05-20 16:52:00,79.0,42.0,29.52,North,355,3.0,-999.0,27,-99.99,,,-99.99,,2013-05-20 23:52:00,
2013-05-20 17:01:00,79.0,42.0,29.52,North,355,3.0,-999.0,27,-99.99,,,-99.99,,2013-05-21 00:01:00,